カタログに戻る

COSMOS 1275 DEB

LostPO
NORAD 42137·DEBRIS·🇷🇺 Russia

打ち上げ Jun 4, 1981 から Plesetsk Cosmodrome

Loading…

次のパス (今後24時間)

TLE

古いSource: Space-Track

元期: Aug 16, 2017, 20:01 UTC

1 42137U 81053QZ  17228.83406549 +.00000480 +00000-0 +59097-3 0  9998
2 42137 082.8754 057.5819 0156400 194.5026 165.4727 13.58524929633430

AllMySatでCOSMOS 1275 DEBをリアルタイム追跡

Download on the App Store